Вернуться в каталог

CZ-6A DEB

АктивенSSO
NORAD 54964·DEBRIS·🇨🇳 China

Запущен Nov 11, 2022 с Taiyuan Satellite Launch Center

Loading…

Ближайшие Пролёты (ближайшие 24 часа)

TLE

СвежийSource: Space-Track

Эпоха: Sep 14, 2026, 10:57 UTC

1 54964U 22151TD  26257.45645568 -.00000075  00000-0 -18941-4 0  9995
2 54964  98.8776 252.5900 0061139 114.0851 246.6730 14.07082571196940

Отслеживайте CZ-6A DEB в реальном времени с AllMySat

Download on the App Store